[[{"header":{"parameterUnit":"m.s-1","parameterCategory":1,"la1":30.2992,"la2":30.254,"lo1":-89.0895,"lo2":-89.0443,"dy":0.0025,"dx":0.0025,"nx":19,"ny":19,"refTime":"2026-04-24T21:00:00:Z","depth":0,"parameterNumber":2,"parameterNumberName":"U-component_of_WINDS"},"data":[0,0,0,3.3078,3.3082,3.3261,3.3262,3.351,3.3512,0,0,0,0,0,0,0,0,0,0,0,3.3034,3.3036,3.3078,3.3083,3.3261,3.3262,3.3509,3.3512,0,0,0,0,0,0,0,0,0,0,0,3.3033,3.3036,3.3038,3.3083,3.3261,3.3262,3.3509,3.3368,0,0,0,0,0,0,0,0,0,0,3.3191,3.3158,3.3035,3.3038,3.3085,3.3261,3.3262,3.3361,3.3377,3.3436,0,3.3489,0,3.3504,3.353,3.3531,0,0,0,3.3077,3.3145,3.3185,3.3038,3.3086,3.3261,3.3179,3.3369,3.3387,3.3457,3.3492,3.3501,3.3509,3.3531,3.3533,3.389,3.3891,0,0,3.3067,3.3072,3.3173,3.3197,3.3168,3.3173,3.3185,3.338,3.3419,3.3493,3.3507,3.3513,3.3533,3.3535,3.3888,3.389,0,0,0,3.3043,3.3065,3.31,3.3187,3.3218,3.3179,3.3192,3.3411,3.3422,3.3509,3.3516,3.3535,3.3538,3.3886,3.3889,3.3988,0,0,0,3.3036,3.3051,3.3096,3.3101,3.3215,3.3316,3.3218,3.3408,3.343,3.3514,3.3535,3.354,3.3883,3.3887,3.398,3.4034,0,0,0,3.302,3.3049,3.3077,3.31,3.3177,3.3313,3.3335,3.3413,3.3434,3.3531,3.3541,3.3882,3.3886,3.3974,3.4023,3.4129,0,0,0,3.3004,3.3164,3.3079,3.3261,3.3176,3.3372,3.3333,3.348,3.3574,3.3536,3.3884,3.3888,3.3971,3.4016,3.4122,3.4218,3.4258,0,0,3.3208,3.3188,3.3295,3.3225,3.3437,3.3344,3.3573,3.3656,3.3663,3.3814,3.3823,3.3983,3.4022,3.4127,3.4485,3.4517,0,0,0,3.3362,3.3438,3.3494,3.3583,3.3649,3.3711,3.3759,3.3791,3.3919,3.374,3.405,3.4073,3.4135,3.418,3.4208,3.426,3.391,3.3909,3.3909,3.3658,3.3656,3.3833,3.3853,3.394,3.3988,3.406,3.411,3.4084,3.4158,3.4202,3.4419,3.4473,3.4493,3.4548,3.4254,3.4254,3.4254,3.4255,3.3957,3.4065,3.4026,3.4183,3.4182,3.4315,3.4369,3.4346,3.4471,3.4385,3.4439,3.4344,3.4528,3.4576,3.4262,3.4261,3.426,3.4259,3.4259,3.415,3.4201,3.4236,3.4365,3.4466,3.4482,3.4604,3.4599,3.4595,3.4649,3.4696,3.4694,3.4692,3.4672,3.4673,3.4673,3.4674,3.4675,3.4675,3.4336,3.4371,3.4473,3.4558,3.4615,3.469,3.4742,3.4799,3.4861,3.4848,3.4848,3.4815,3.4547,3.4479,3.4687,3.4685,3.4683,3.4682,3.4681,3.4638,3.4569,3.4726,3.4784,3.4884,3.4985,3.4977,3.5095,3.5141,3.5202,3.5159,3.496,3.4941,3.4919,3.4863,3.5158,3.5158,3.5158,3.5158,3.48,3.479,3.495,3.5042,3.5132,3.5141,3.5322,3.5365,3.5399,3.5428,3.5385,3.5311,3.5289,3.5282,3.5252,3.52,3.5574,3.5574,3.5575,3.4987,3.4985,3.5138,3.5168,3.5246,3.5315,3.5485,3.5595,3.5619,3.5591,3.5451,3.5434,3.5313,3.5274,3.5242,3.5196,3.51,0,0]},{"header":{"parameterUnit":"m.s-1","parameterCategory":1,"la1":30.2992,"la2":30.254,"lo1":-89.0895,"lo2":-89.0443,"dy":0.0025,"dx":0.0025,"nx":19,"ny":19,"refTime":"2026-04-24T21:00:00:Z","depth":0,"parameterNumber":3,"parameterNumberName":"V-component_of_WINDS"},"data":[0,0,0,2.3133,2.3137,2.3317,2.3318,2.3543,2.3545,0,0,0,0,0,0,0,0,0,0,0,2.3077,2.3079,2.3133,2.3138,2.3317,2.3318,2.3543,2.3545,0,0,0,0,0,0,0,0,0,0,0,2.3076,2.3078,2.308,2.3138,2.3317,2.3318,2.3542,2.3408,0,0,0,0,0,0,0,0,0,0,2.3235,2.318,2.3078,2.308,2.3139,2.3316,2.3318,2.3402,2.3417,2.346,0,2.3496,0,2.3524,2.356,2.356,0,0,0,2.314,2.3167,2.3218,2.308,2.3141,2.3316,2.3237,2.341,2.3427,2.3479,2.35,2.3508,2.3528,2.3561,2.3562,2.38,2.3801,0,0,2.313,2.3108,2.3207,2.3229,2.32,2.3231,2.3242,2.342,2.3442,2.3501,2.3514,2.3532,2.3563,2.3564,2.3799,2.38,0,0,0,2.31,2.3101,2.3148,2.322,2.3252,2.3236,2.3249,2.3434,2.3451,2.3516,2.3534,2.3564,2.3567,2.3798,2.3799,2.3827,0,0,0,2.3094,2.3083,2.3143,2.3132,2.3249,2.3345,2.3258,2.3438,2.3459,2.3533,2.3564,2.3569,2.3797,2.3799,2.3824,2.3844,0,0,0,2.3067,2.308,2.3105,2.313,2.3206,2.3343,2.337,2.3443,2.347,2.3561,2.3569,2.3796,2.3798,2.3821,2.384,2.39,0,0,0,2.3031,2.3127,2.3105,2.322,2.3205,2.3358,2.3369,2.3485,2.3565,2.3565,2.3797,2.3799,2.382,2.3837,2.3897,2.3948,2.3966,0,0,2.314,2.3139,2.3209,2.3194,2.3346,2.3332,2.3489,2.3584,2.3613,2.3736,2.3742,2.3825,2.3839,2.39,2.4079,2.4093,0,0,0,2.3236,2.3285,2.333,2.3405,2.348,2.3546,2.3619,2.3654,2.376,2.3671,2.3864,2.3873,2.3909,2.3935,2.3947,2.398,2.381,2.381,2.3809,2.3359,2.339,2.3507,2.356,2.3633,2.3708,2.377,2.383,2.3841,2.3886,2.3923,2.4028,2.4056,2.4066,2.41,2.3952,2.3952,2.3952,2.3952,2.3522,2.3597,2.3609,2.3726,2.3759,2.3858,2.3934,2.3938,2.4036,2.4002,2.4036,2.3997,2.4081,2.4112,2.3955,2.3954,2.3954,2.3954,2.3954,2.3606,2.3648,2.3688,2.3801,2.3884,2.3935,2.4028,2.4054,2.408,2.4114,2.4156,2.4155,2.4159,2.4132,2.4132,2.4132,2.4133,2.4133,2.4133,2.3678,2.3723,2.3798,2.3885,2.3937,2.4009,2.4084,2.4136,2.4201,2.4213,2.4214,2.4221,2.4083,2.4048,2.4139,2.4138,2.4137,2.4137,2.4136,2.3832,2.3802,2.3917,2.3969,2.4074,2.4155,2.4187,2.4291,2.4338,2.4383,2.4383,2.4276,2.4278,2.4268,2.424,2.4375,2.4375,2.4375,2.4375,2.3904,2.3907,2.4032,2.4113,2.4196,2.4237,2.4367,2.4427,2.4484,2.4515,2.45,2.4464,2.4452,2.4461,2.4447,2.4421,2.4599,2.4599,2.46,2.4001,2.4014,2.4119,2.4174,2.4258,2.4329,2.4453,2.4546,2.4604,2.4609,2.4541,2.4531,2.4474,2.4453,2.4457,2.4435,2.4387,0,0]}]]